SKB62 KGSO-KCMH

Flight info

Callsign SKB62
Flight time 0h 51m
Altitude 36000
Route TRSHA1 TAARZ MCGNS SCRLT2
Aircraft A319/M-SDE3FGHIRWY/LB1

Departure

Time 2026-04-23 00:03
Airport Piedmont Triad International Airport (KGSO)

Arrival

Time 2026-04-23 00:55
Airport John Glenn Columbus International Airport (KCMH)
Time Latitude Longitude Altitude Speed Heading
2026-04-22 23:26 36.10412 -79.93609 891 ft 0 kts 226°
2026-04-22 23:49 36.10412 -79.93608 891 ft 0 kts 226°
2026-04-22 23:49 36.10420 -79.93598 890 ft 2 kts 226°
2026-04-22 23:49 36.10430 -79.93584 890 ft 2 kts 226°
2026-04-22 23:49 36.10440 -79.93572 890 ft 2 kts 213°
2026-04-22 23:50 36.10455 -79.93566 890 ft 2 kts 177°
2026-04-22 23:50 36.10469 -79.93572 890 ft 2 kts 144°
2026-04-22 23:50 36.10475 -79.93578 889 ft 0 kts 130°
2026-04-22 23:55 36.10469 -79.93570 890 ft 2 kts 132°
2026-04-22 23:55 36.10446 -79.93541 891 ft 6 kts 136°
2026-04-22 23:55 36.10413 -79.93502 892 ft 6 kts 136°
2026-04-22 23:55 36.10382 -79.93464 893 ft 6 kts 135°
2026-04-22 23:56 36.10349 -79.93424 893 ft 6 kts 134°
2026-04-22 23:56 36.10310 -79.93403 893 ft 7 kts 220°
2026-04-22 23:56 36.10265 -79.93456 893 ft 9 kts 225°
2026-04-22 23:56 36.10216 -79.93517 894 ft 10 kts 225°
2026-04-22 23:57 36.10149 -79.93536 893 ft 12 kts 153°
2026-04-22 23:57 36.10081 -79.93542 892 ft 12 kts 223°
2026-04-22 23:57 36.10016 -79.93621 893 ft 12 kts 227°
2026-04-22 23:57 36.09953 -79.93702 893 ft 13 kts 225°
2026-04-22 23:58 36.09886 -79.93784 895 ft 13 kts 224°
2026-04-22 23:58 36.09823 -79.93861 897 ft 12 kts 224°
2026-04-22 23:58 36.09761 -79.93941 897 ft 13 kts 230°
2026-04-22 23:58 36.09700 -79.94031 897 ft 14 kts 230°
2026-04-22 23:59 36.09627 -79.94115 899 ft 14 kts 225°
2026-04-22 23:59 36.09559 -79.94199 901 ft 13 kts 225°
2026-04-22 23:59 36.09494 -79.94282 902 ft 13 kts 227°
2026-04-22 23:59 36.09430 -79.94371 902 ft 14 kts 226°
2026-04-23 00:00 36.09283 -79.94553 901 ft 15 kts 202°
2026-04-23 00:00 36.09206 -79.94515 898 ft 6 kts 136°
2026-04-23 00:00 36.09202 -79.94511 898 ft 0 kts 137°
2026-04-23 00:02 36.09190 -79.94498 898 ft 4 kts 136°
2026-04-23 00:02 36.09161 -79.94462 897 ft 7 kts 136°
2026-04-23 00:02 36.09144 -79.94418 896 ft 5 kts 66°
2026-04-23 00:02 36.09169 -79.94385 897 ft 5 kts 46°
2026-04-23 00:03 36.09306 -79.94212 899 ft 65 kts 46°
2026-04-23 00:03 36.09800 -79.93584 889 ft 135 kts 46°
2026-04-23 00:03 36.10547 -79.92602 1137 ft 168 kts 47°
2026-04-23 00:03 36.11336 -79.91523 1845 ft 172 kts 48°
2026-04-23 00:04 36.12146 -79.90546 2680 ft 164 kts 30°
2026-04-23 00:04 36.13113 -79.89697 3256 ft 178 kts 28°
2026-04-23 00:04 36.14281 -79.89238 3756 ft 182 kts 348°
2026-04-23 00:04 36.15346 -79.90012 4212 ft 192 kts 304°
2026-04-23 00:05 36.15752 -79.91643 4703 ft 209 kts 279°
2026-04-23 00:05 36.16015 -79.93472 5161 ft 230 kts 283°
2026-04-23 00:05 36.16433 -79.95473 5706 ft 249 kts 287°
2026-04-23 00:05 36.16962 -79.97543 6405 ft 260 kts 289°
2026-04-23 00:06 36.17559 -79.99656 7325 ft 264 kts 290°
2026-04-23 00:06 36.18186 -80.01764 8266 ft 266 kts 291°
2026-04-23 00:06 36.18837 -80.03889 9199 ft 269 kts 291°
2026-04-23 00:06 36.19516 -80.06069 10098 ft 272 kts 291°
2026-04-23 00:07 36.20202 -80.08257 10860 ft 281 kts 292°
2026-04-23 00:07 36.20934 -80.10566 11346 ft 299 kts 292°
2026-04-23 00:07 36.21709 -80.13004 11812 ft 316 kts 292°
2026-04-23 00:07 36.22529 -80.15585 12515 ft 325 kts 293°
2026-04-23 00:08 36.23355 -80.18189 13326 ft 328 kts 293°
2026-04-23 00:08 36.24189 -80.20820 14115 ft 332 kts 293°
2026-04-23 00:08 36.25031 -80.23473 14885 ft 336 kts 293°
2026-04-23 00:08 36.25886 -80.26168 15592 ft 341 kts 293°
2026-04-23 00:09 36.26749 -80.28892 16283 ft 345 kts 293°
2026-04-23 00:09 36.27661 -80.31680 16959 ft 350 kts 296°
2026-04-23 00:09 36.28778 -80.34348 17617 ft 353 kts 302°
2026-04-23 00:09 36.30138 -80.36877 18250 ft 357 kts 308°
2026-04-23 00:10 36.31662 -80.39288 18886 ft 360 kts 310°
2026-04-23 00:10 36.33331 -80.41595 19513 ft 362 kts 318°
2026-04-23 00:10 36.35346 -80.43498 20158 ft 364 kts 328°
2026-04-23 00:10 36.37618 -80.44913 20770 ft 368 kts 337°
2026-04-23 00:11 36.39990 -80.46070 21366 ft 371 kts 339°
2026-04-23 00:11 36.42413 -80.47211 21933 ft 374 kts 339°
2026-04-23 00:11 36.44846 -80.48356 22459 ft 378 kts 339°
2026-04-23 00:11 36.47307 -80.49519 22986 ft 382 kts 339°
2026-04-23 00:12 36.49808 -80.50705 23532 ft 385 kts 339°
2026-04-23 00:12 36.52317 -80.51899 24087 ft 387 kts 339°
2026-04-23 00:12 36.54823 -80.53095 24616 ft 389 kts 339°
2026-04-23 00:12 36.57364 -80.54308 25144 ft 391 kts 339°
2026-04-23 00:13 36.59901 -80.55520 25647 ft 393 kts 339°
2026-04-23 00:13 36.62457 -80.56740 26142 ft 395 kts 339°
2026-04-23 00:13 36.65007 -80.57930 26616 ft 397 kts 340°
2026-04-23 00:13 36.67588 -80.59178 27069 ft 399 kts 338°
2026-04-23 00:14 36.70115 -80.60657 27528 ft 401 kts 334°
2026-04-23 00:14 36.72543 -80.62361 27956 ft 403 kts 329°
2026-04-23 00:14 36.74876 -80.64258 28379 ft 405 kts 327°
2026-04-23 00:14 36.77237 -80.66248 28797 ft 407 kts 327°
2026-04-23 00:15 36.79583 -80.68240 29200 ft 409 kts 327°
2026-04-23 00:15 36.81926 -80.70232 29602 ft 411 kts 327°
2026-04-23 00:15 36.84280 -80.72234 29994 ft 412 kts 327°
2026-04-23 00:15 36.86666 -80.74264 30373 ft 414 kts 327°
2026-04-23 00:16 36.89021 -80.76271 30830 ft 413 kts 327°
2026-04-23 00:16 36.91371 -80.78275 31292 ft 412 kts 327°
2026-04-23 00:16 36.93755 -80.80307 31765 ft 411 kts 327°
2026-04-23 00:16 36.96106 -80.82313 32246 ft 409 kts 327°
2026-04-23 00:17 36.98444 -80.84310 32727 ft 407 kts 327°
2026-04-23 00:17 37.00811 -80.86334 33187 ft 405 kts 327°
2026-04-23 00:17 37.03149 -80.88333 33615 ft 404 kts 327°
2026-04-23 00:17 37.05488 -80.90334 34024 ft 403 kts 327°
2026-04-23 00:18 37.07821 -80.92332 34450 ft 402 kts 327°
2026-04-23 00:18 37.10141 -80.94320 34822 ft 403 kts 327°
2026-04-23 00:18 37.12449 -80.96302 35150 ft 404 kts 327°
2026-04-23 00:18 37.14785 -80.98306 35455 ft 405 kts 327°
2026-04-23 00:19 37.17094 -81.00289 35724 ft 407 kts 327°
2026-04-23 00:19 37.19445 -81.02311 36000 ft 408 kts 327°
2026-04-23 00:19 37.21785 -81.04326 36157 ft 409 kts 327°
2026-04-23 00:20 37.26443 -81.08342 36159 ft 409 kts 327°
2026-04-23 00:20 37.31131 -81.12385 36162 ft 409 kts 327°
2026-04-23 00:21 37.35822 -81.16439 36162 ft 409 kts 327°
2026-04-23 00:21 37.40499 -81.20487 36162 ft 409 kts 326°
2026-04-23 00:22 37.45166 -81.24532 36165 ft 410 kts 327°
2026-04-23 00:22 37.49867 -81.28615 36161 ft 409 kts 326°
2026-04-23 00:23 37.54559 -81.32695 36154 ft 410 kts 326°
2026-04-23 00:23 37.59208 -81.36743 36148 ft 410 kts 326°
2026-04-23 00:24 37.63889 -81.40826 36144 ft 410 kts 326°
2026-04-23 00:24 37.68579 -81.44925 36140 ft 410 kts 326°
2026-04-23 00:25 37.73244 -81.49007 36135 ft 410 kts 326°
2026-04-23 00:25 37.77950 -81.53132 36136 ft 410 kts 326°
2026-04-23 00:26 37.82622 -81.57232 36129 ft 410 kts 326°
2026-04-23 00:26 37.87282 -81.61328 36124 ft 410 kts 326°
2026-04-23 00:27 37.91946 -81.65435 36118 ft 410 kts 326°
2026-04-23 00:27 37.96627 -81.69563 36110 ft 410 kts 326°
2026-04-23 00:28 38.01319 -81.73708 36102 ft 411 kts 326°
2026-04-23 00:28 38.05985 -81.77837 36100 ft 410 kts 326°
2026-04-23 00:29 38.10672 -81.81992 35713 ft 409 kts 326°
2026-04-23 00:29 38.12973 -81.84034 35407 ft 406 kts 326°
2026-04-23 00:29 38.15285 -81.86087 35103 ft 404 kts 326°
2026-04-23 00:29 38.17586 -81.88131 34799 ft 403 kts 326°
2026-04-23 00:30 38.19860 -81.90153 34501 ft 403 kts 326°
2026-04-23 00:30 38.22161 -81.92200 34203 ft 404 kts 326°
2026-04-23 00:30 38.24461 -81.94248 33917 ft 404 kts 326°
2026-04-23 00:30 38.26749 -81.96287 33653 ft 405 kts 326°
2026-04-23 00:31 38.29070 -81.98359 33393 ft 406 kts 326°
2026-04-23 00:31 38.31387 -82.00429 33131 ft 406 kts 326°
2026-04-23 00:31 38.33681 -82.02479 32871 ft 406 kts 326°
2026-04-23 00:31 38.35994 -82.04548 32611 ft 407 kts 325°
2026-04-23 00:32 38.38314 -82.06625 32353 ft 408 kts 326°
2026-04-23 00:32 38.40639 -82.08708 32094 ft 409 kts 326°
2026-04-23 00:32 38.42988 -82.10680 31838 ft 409 kts 329°
2026-04-23 00:32 38.45482 -82.12466 31577 ft 410 kts 333°
2026-04-23 00:33 38.48053 -82.14017 31321 ft 411 kts 336°
2026-04-23 00:33 38.50722 -82.15342 31062 ft 412 kts 340°
2026-04-23 00:33 38.53463 -82.16424 30805 ft 413 kts 344°
2026-04-23 00:33 38.56256 -82.17255 30425 ft 415 kts 347°
2026-04-23 00:34 38.59098 -82.17866 29855 ft 416 kts 349°
2026-04-23 00:34 38.61946 -82.18411 29302 ft 411 kts 350°
2026-04-23 00:34 38.64752 -82.18933 28845 ft 408 kts 350°
2026-04-23 00:34 38.67536 -82.19450 28332 ft 405 kts 351°
2026-04-23 00:35 38.70302 -82.19965 27800 ft 401 kts 351°
2026-04-23 00:35 38.73064 -82.20480 27271 ft 397 kts 351°
2026-04-23 00:35 38.75762 -82.20984 26770 ft 392 kts 351°
2026-04-23 00:35 38.78455 -82.21487 26255 ft 388 kts 351°
2026-04-23 00:36 38.81108 -82.21985 25756 ft 384 kts 351°
2026-04-23 00:36 38.83740 -82.22477 25184 ft 387 kts 351°
2026-04-23 00:36 38.86426 -82.22981 24592 ft 386 kts 351°
2026-04-23 00:36 38.89040 -82.23472 24013 ft 384 kts 351°
2026-04-23 00:37 38.91687 -82.23968 23424 ft 380 kts 351°
2026-04-23 00:37 38.94275 -82.24455 22856 ft 378 kts 351°
2026-04-23 00:37 38.96873 -82.24941 22283 ft 375 kts 351°
2026-04-23 00:37 38.99437 -82.25422 21715 ft 373 kts 351°
2026-04-23 00:38 39.01994 -82.25903 21142 ft 370 kts 351°
2026-04-23 00:38 39.04520 -82.26379 20634 ft 366 kts 351°
2026-04-23 00:38 39.07035 -82.26853 20137 ft 367 kts 351°
2026-04-23 00:38 39.09547 -82.27328 19554 ft 365 kts 351°
2026-04-23 00:39 39.12049 -82.27801 18948 ft 364 kts 351°
2026-04-23 00:39 39.14566 -82.28278 18386 ft 362 kts 351°
2026-04-23 00:39 39.17050 -82.28748 17799 ft 361 kts 351°
2026-04-23 00:39 39.19512 -82.29215 17232 ft 360 kts 351°
2026-04-23 00:40 39.21983 -82.29685 16663 ft 358 kts 351°
2026-04-23 00:40 39.24421 -82.30150 16105 ft 357 kts 351°
2026-04-23 00:40 39.26833 -82.30608 15551 ft 349 kts 351°
2026-04-23 00:40 39.29244 -82.31068 15000 ft 346 kts 351°
2026-04-23 00:41 39.31586 -82.31514 14450 ft 345 kts 351°
2026-04-23 00:41 39.33964 -82.31967 13897 ft 344 kts 351°
2026-04-23 00:41 39.36336 -82.32418 13313 ft 342 kts 351°
2026-04-23 00:41 39.38656 -82.32858 12770 ft 335 kts 351°
2026-04-23 00:42 39.40934 -82.33292 12209 ft 333 kts 350°
2026-04-23 00:42 39.43219 -82.33727 11644 ft 332 kts 350°
2026-04-23 00:42 39.45493 -82.34161 11080 ft 331 kts 350°
2026-04-23 00:42 39.47761 -82.34598 10516 ft 330 kts 349°
2026-04-23 00:43 39.49961 -82.35351 10095 ft 322 kts 337°
2026-04-23 00:43 39.51928 -82.36636 9988 ft 320 kts 326°
2026-04-23 00:43 39.53778 -82.38306 9990 ft 319 kts 323°
2026-04-23 00:43 39.55501 -82.39941 9978 ft 300 kts 322°
2026-04-23 00:44 39.57139 -82.41505 9979 ft 282 kts 322°
2026-04-23 00:44 39.58691 -82.42984 9986 ft 275 kts 322°
2026-04-23 00:44 39.60233 -82.44451 9989 ft 275 kts 323°
2026-04-23 00:44 39.61768 -82.45908 9990 ft 275 kts 323°
2026-04-23 00:45 39.63322 -82.47383 9997 ft 275 kts 323°
2026-04-23 00:45 39.64847 -82.48828 10006 ft 275 kts 322°
2026-04-23 00:45 39.66378 -82.50280 9999 ft 271 kts 322°
2026-04-23 00:45 39.67897 -82.51720 10002 ft 269 kts 322°
2026-04-23 00:46 39.69396 -82.53144 9857 ft 270 kts 322°
2026-04-23 00:46 39.70920 -82.54590 9448 ft 270 kts 322°
2026-04-23 00:46 39.72448 -82.55977 9040 ft 268 kts 324°
2026-04-23 00:46 39.73971 -82.57313 8634 ft 262 kts 324°
2026-04-23 00:47 39.75466 -82.58621 8213 ft 257 kts 324°
2026-04-23 00:47 39.76948 -82.59920 7790 ft 255 kts 324°
2026-04-23 00:47 39.78399 -82.61195 7375 ft 253 kts 324°
2026-04-23 00:47 39.79840 -82.62460 6950 ft 247 kts 324°
2026-04-23 00:48 39.81339 -82.63485 6527 ft 243 kts 338°
2026-04-23 00:48 39.82976 -82.63950 6105 ft 238 kts 350°
2026-04-23 00:48 39.84591 -82.64136 5687 ft 232 kts 352°
2026-04-23 00:48 39.86203 -82.64289 5265 ft 234 kts 352°
2026-04-23 00:49 39.87837 -82.64449 5013 ft 230 kts 351°
2026-04-23 00:49 39.89361 -82.64599 5000 ft 215 kts 351°
2026-04-23 00:49 39.90842 -82.64753 4999 ft 209 kts 348°
2026-04-23 00:49 39.92252 -82.65125 5001 ft 204 kts 338°
2026-04-23 00:50 39.93529 -82.65758 4951 ft 192 kts 332°
2026-04-23 00:50 39.94759 -82.66367 4798 ft 186 kts 336°
2026-04-23 00:50 39.95954 -82.66916 4602 ft 177 kts 330°
2026-04-23 00:50 39.96836 -82.67929 4334 ft 166 kts 302°
2026-04-23 00:51 39.97469 -82.69159 4053 ft 162 kts 300°
2026-04-23 00:51 39.98067 -82.70364 3773 ft 158 kts 295°
2026-04-23 00:51 39.98311 -82.71731 3484 ft 153 kts 275°
2026-04-23 00:51 39.98379 -82.73090 3182 ft 149 kts 274°
2026-04-23 00:52 39.98443 -82.74422 2845 ft 146 kts 273°
2026-04-23 00:52 39.98510 -82.75711 2569 ft 139 kts 273°
2026-04-23 00:52 39.98574 -82.76919 2369 ft 134 kts 274°
2026-04-23 00:52 39.98640 -82.78135 2221 ft 134 kts 274°
2026-04-23 00:53 39.98708 -82.79345 2021 ft 133 kts 274°
2026-04-23 00:53 39.98775 -82.80550 1831 ft 131 kts 274°
2026-04-23 00:53 39.98840 -82.81672 1619 ft 121 kts 274°
2026-04-23 00:53 39.98911 -82.82752 1450 ft 121 kts 274°
2026-04-23 00:54 39.98978 -82.83869 1369 ft 124 kts 275°
2026-04-23 00:54 39.99034 -82.84988 1172 ft 125 kts 274°
2026-04-23 00:54 39.99090 -82.86119 1032 ft 128 kts 274°
2026-04-23 00:54 39.99163 -82.87289 873 ft 130 kts 274°
2026-04-23 00:55 39.99224 -82.88423 814 ft 107 kts 273°
2026-04-23 00:55 39.99261 -82.89020 813 ft 40 kts 274°
2026-04-23 00:55 39.99284 -82.89365 813 ft 34 kts 276°
2026-04-23 00:55 39.99369 -82.89619 812 ft 27 kts 302°
2026-04-23 00:56 39.99427 -82.89728 812 ft 12 kts 305°
2026-04-23 00:56 39.99471 -82.89825 813 ft 13 kts 295°
2026-04-23 00:56 39.99522 -82.89916 812 ft 9 kts 350°
2026-04-23 00:56 39.99586 -82.89908 813 ft 9 kts 30°
2026-04-23 00:57 39.99597 -82.89825 813 ft 10 kts 91°
2026-04-23 00:57 39.99588 -82.89726 813 ft 11 kts 98°
2026-04-23 00:57 39.99582 -82.89610 813 ft 13 kts 92°
2026-04-23 00:57 39.99576 -82.89484 813 ft 14 kts 94°
2026-04-23 00:58 39.99567 -82.89349 813 ft 15 kts 94°
2026-04-23 00:58 39.99559 -82.89204 813 ft 16 kts 94°
2026-04-23 00:58 39.99551 -82.89054 813 ft 17 kts 94°
2026-04-23 00:58 39.99542 -82.88896 813 ft 17 kts 94°
2026-04-23 00:59 39.99533 -82.88736 813 ft 18 kts 94°
2026-04-23 00:59 39.99523 -82.88570 814 ft 18 kts 95°
2026-04-23 00:59 39.99513 -82.88401 814 ft 18 kts 94°
2026-04-23 00:59 39.99548 -82.88316 813 ft 11 kts 358°
2026-04-23 01:00 39.99627 -82.88291 813 ft 12 kts 41°
2026-04-23 01:00 39.99657 -82.88252 814 ft 3 kts 44°
2026-04-23 01:00 39.99685 -82.88231 813 ft 5 kts 35°
2026-04-23 01:00 39.99714 -82.88208 813 ft 4 kts
2026-04-23 01:01 39.99736 -82.88208 814 ft 0 kts